Location: Fort Worth, Tx
(32.7431°N, 97.3695°W)
Time: 11:35:30
(UTC-04:00)

Explorer 11/Cluster Stage 4 - Pass Details

Date: 23 February 2024
Orbit: 465 x 1219 km, 28.8° (Epoch: 24 April)

Event Time Altitude Azimuth Distance (km) Brightness Sun altitude
Exits shadow 05:26:09 45° 124° (SE) 1,229 7.7 -34.0°
Drops below altitude 10° 05:30:10 10° 102° (ESE) 2,415 9.8 -33.1°
Sets 05:32:27 0° 99° (E) 3,231 10.7 -32.7°
